FW2019 Weather Reports


Display with metric or nautical units.
time (UTC)temp
F
wind
direction
speed
MPH
gust
MPH
rain 1hr
in
rain 24hr
in
rain mn
in
humidity
%
barometer
mb
20190526083003 54 25 2.0 8.0 0.00 0.14 0.02 58 995.4
20190526082803 54 51 2.0 8.0 0.00 0.14 0.02 57 995.6
20190526082603 54 50 5.0 8.0 0.00 0.14 0.02 55 995.6
20190526082403 54 50 4.0 6.0 0.00 0.14 0.02 59 995.4
20190526082203 54 100 3.0 6.0 0.00 0.14 0.02 60 995.6
20190526082003 54 132 4.0 6.0 0.00 0.14 0.02 61 995.3
20190526081806 54 162 3.0 4.0 0.00 0.14 0.02 62 995.5
20190526081604 53 155 2.0 4.0 0.00 0.14 0.02 62 995.3
20190526081404 53 145 1.0 5.0 0.00 0.14 0.02 61 995.3
20190526081204 53 128 2.0 8.0 0.00 0.14 0.02 62 995.4
20190526081004 52 117 2.0 8.0 0.00 0.14 0.02 60 995.5
20190526080804 52 115 3.0 8.0 0.00 0.14 0.02 61 995.5
20190526080604 52 116 3.0 8.0 0.00 0.14 0.02 60 995.5
20190526080404 53 116 4.0 8.0 0.00 0.14 0.02 60 995.6
20190526080204 53 111 5.0 8.0 0.00 0.14 0.02 57 995.6
20190526080004 53 115 5.0 8.0 0.00 0.14 0.02 57 995.7
20190526075804 54 116 4.0 6.0 0.00 0.14 0.02 58 995.4
20190526075604 55 114 2.0 5.0 0.00 0.14 0.02 53 995.7
20190526075404 55 121 2.0 5.0 0.00 0.14 0.02 56 995.6
20190526075204 56 166 0.0 3.0 0.00 0.14 0.02 59 995.7
20190526075004 56 189 1.0 3.0 0.00 0.14 0.02 60 995.7
20190526074804 55 187 2.0 4.0 0.00 0.14 0.02 57 996.0
20190526074603 54 196 2.0 4.0 0.00 0.14 0.02 58 995.7
20190526074404 53 224 2.0 4.0 0.00 0.14 0.02 63 995.8
20190526074204 52 182 1.0 4.0 0.00 0.14 0.02 61 995.6
20190526074004 51 149 3.0 4.0 0.00 0.14 0.02 62 995.9
20190526073804 51 38 3.0 4.0 0.00 0.14 0.02 63 995.9
20190526073604 51 107 1.0 4.0 0.00 0.14 0.02 63 995.9
20190526073404 50 110 1.0 4.0 0.00 0.14 0.02 62 995.9
20190526073204 50 167 2.0 4.0 0.00 0.14 0.02 63 995.8
20190526073003 50 198 1.0 4.0 0.00 0.14 0.02 65 995.8
20190526072804 50 202 2.0 5.0 0.00 0.14 0.02 65 995.8
20190526072603 50 211 1.0 5.0 0.00 0.14 0.02 64 996.1
20190526072404 50 192 3.0 5.0 0.00 0.14 0.02 63 996.1
20190526072203 50 128 2.0 7.0 0.00 0.14 0.02 63 995.6
20190526072003 50 96 3.0 7.0 0.00 0.14 0.02 64 995.8
20190526071803 50 97 4.0 7.0 0.00 0.14 0.02 63 995.8
20190526071603 50 113 3.0 7.0 0.00 0.14 0.02 63 995.8
20190526071403 50 107 3.0 7.0 0.00 0.14 0.02 61 995.9
20190526071203 51 104 3.0 7.0 0.00 0.14 0.02 63 996.0
20190526071003 51 125 5.0 7.0 0.00 0.14 0.02 63 995.9
20190526070804 52 139 4.0 6.0 0.00 0.14 0.02 64 995.8
20190526070603 53 130 2.0 6.0 0.00 0.14 0.02 66 996.0
20190526070403 53 136 1.0 5.0 0.00 0.14 0.02 66 995.9
20190526070204 53 161 2.0 8.0 0.00 0.14 0.02 66 996.0
20190526070004 52 125 3.0 8.0 0.00 0.14 0.02 66 996.1
20190526065803 52 116 3.0 8.0 0.00 0.14 0.02 68 996.0
20190526065603 51 134 2.0 8.0 0.00 0.14 0.02 67 996.0
20190526065403 51 130 3.0 8.0 0.00 0.14 0.02 68 996.0
20190526065203 51 132 5.0 8.0 0.00 0.14 0.02 69 996.0
20190526065003 51 168 4.0 7.0 0.00 0.14 0.02 67 995.8
20190526064803 51 151 2.0 7.0 0.00 0.14 0.02 70 996.1
20190526064603 51 133 4.0 7.0 0.00 0.14 0.02 70 996.0
20190526064403 50 126 2.0 4.0 0.00 0.14 0.02 70 996.0
20190526064203 49 120 4.0 4.0 0.00 0.14 0.02 70 996.1
20190526064003 49 114 2.0 4.0 0.00 0.14 0.02 70 995.9
20190526063803 49 130 3.0 4.0 0.00 0.14 0.02 70 996.1
20190526063603 49 145 3.0 7.0 0.00 0.14 0.02 70 996.1
20190526063404 49 155 2.0 7.0 0.00 0.14 0.02 70 995.9
20190526063203 49 143 3.0 7.0 0.00 0.14 0.02 71 996.1
20190526063003 49 160 1.0 7.0 0.00 0.14 0.02 71 995.9
20190526062803 49 159 2.0 7.0 0.00 0.14 0.02 71 996.0
20190526062603 49 169 4.0 7.0 0.00 0.14 0.02 71 995.9
20190526062403 49 173 2.0 4.0 0.00 0.14 0.02 72 995.9
20190526062203 49 176 2.0 4.0 0.00 0.14 0.02 72 995.9
20190526062003 48 174 3.0 4.0 0.00 0.14 0.02 72 995.9
20190526061803 48 165 2.0 4.0 0.00 0.14 0.02 72 995.9
20190526061603 48 160 1.0 4.0 0.00 0.14 0.02 72 996.0
20190526061403 48 161 3.0 4.0 0.00 0.14 0.02 72 995.9
20190526061203 48 162 2.0 4.0 0.00 0.14 0.02 73 995.9
20190526061003 48 152 2.0 4.0 0.00 0.14 0.02 73 996.0
20190526060803 48 151 2.0 4.0 0.00 0.14 0.02 73 996.0
20190526060603 47 151 2.0 4.0 0.00 0.14 0.02 73 995.9
20190526060403 47 145 2.0 4.0 0.00 0.14 0.02 73 995.9
20190526060203 47 153 1.0 6.0 0.00 0.14 0.02 73 996.0
20190526060003 47 158 1.0 6.0 0.00 0.14 0.02 73 995.9
20190526055803 47 167 1.0 6.0 0.00 0.14 0.02 72 995.9
20190526055604 47 173 2.0 6.0 0.00 0.14 0.02 73 995.9
20190526055404 47 172 2.0 6.0 0.00 0.14 0.02 72 996.0
20190526055204 47 170 4.0 6.0 0.00 0.14 0.02 72 996.0
20190526055004 48 171 2.0 5.0 0.00 0.14 0.02 72 995.8
20190526054804 48 164 4.0 5.0 0.00 0.14 0.02 72 995.8
20190526054604 48 158 3.0 5.0 0.00 0.14 0.02 73 995.8
20190526054404 49 161 2.0 4.0 0.00 0.14 0.02 74 995.8
20190526054204 49 176 4.0 4.0 0.00 0.14 0.02 75 995.8
20190526054004 48 175 1.0 4.0 0.00 0.14 0.02 74 995.9
20190526053804 48 177 0.0 4.0 0.00 0.14 0.02 74 995.9
20190526053604 48 181 2.0 4.0 0.00 0.14 0.02 75 995.7
20190526053404 48 187 2.0 4.0 0.00 0.14 0.02 75 995.9
20190526053204 48 180 2.0 4.0 0.00 0.14 0.02 76 995.9
20190526053004 49 201 2.0 4.0 0.00 0.14 0.02 78 995.9
20190526052804 49 194 2.0 4.0 0.01 0.14 0.02 78 995.8
20190526052604 49 189 1.0 6.0 0.01 0.14 0.02 79 996.0
20190526052404 48 195 1.0 6.0 0.01 0.14 0.02 80 995.9
20190526052204 48 189 1.0 6.0 0.01 0.14 0.02 80 996.1
20190526052004 48 183 2.0 6.0 0.01 0.14 0.02 81 995.9
20190526051804 47 181 3.0 6.0 0.01 0.14 0.02 82 996.1
20190526051604 47 181 2.0 5.0 0.01 0.14 0.02 82 996.0
20190526051404 46 170 4.0 5.0 0.01 0.14 0.02 82 996.1
20190526051204 45 180 2.0 4.0 0.01 0.14 0.02 87 995.9
20190526051004 45 175 2.0 6.0 0.01 0.14 0.02 86 996.1
20190526050803 45 182 2.0 6.0 0.01 0.14 0.02 86 996.0
20190526050603 45 185 2.0 6.0 0.01 0.14 0.02 86 995.9
20190526050404 45 185 2.0 6.0 0.01 0.14 0.02 86 996.1
20190526050203 45 196 2.0 6.0 0.01 0.14 0.02 86 996.1
20190526050003 45 211 2.0 6.0 0.01 0.14 0.02 86 996.1
20190526045803 46 215 3.0 6.0 0.01 0.14 0.02 81 996.0
20190526045604 46 218 2.0 6.0 0.01 0.14 0.02 82 996.2
20190526045403 46 216 3.0 6.0 0.01 0.14 0.02 82 996.0
20190526045203 46 189 2.0 3.0 0.01 0.14 0.02 83 996.0
20190526045003 47 164 1.0 3.0 0.01 0.14 0.02 83 996.0
20190526044803 47 156 2.0 3.0 0.01 0.14 0.02 84 996.1
20190526044603 47 155 1.0 3.0 0.01 0.14 0.02 85 996.0
20190526044403 46 151 1.0 4.0 0.01 0.14 0.02 86 996.3
20190526044203 46 156 2.0 4.0 0.01 0.14 0.02 86 996.3
20190526044003 46 149 2.0 7.0 0.01 0.14 0.02 87 996.1
20190526043803 45 151 1.0 7.0 0.01 0.14 0.02 92 996.1
20190526043603 45 151 2.0 7.0 0.01 0.14 0.02 92 996.2
20190526043403 45 152 3.0 7.0 0.01 0.14 0.02 92 996.2
20190526043203 45 151 1.0 7.0 0.01 0.14 0.02 93 996.2
20190526043004 45 159 4.0 7.0 0.01 0.14 0.02 93 996.3
20190526042803 45 158 3.0 4.0 0.00 0.13 0.01 94 996.2
20190526042604 45 153 3.0 4.0 0.00 0.13 0.01 94 996.3
20190526042403 45 157 2.0 3.0 0.00 0.13 0.01 94 996.3
20190526042203 45 157 1.0 3.0 0.00 0.13 0.01 94 996.4
20190526042003 45 176 1.0 2.0 0.00 0.13 0.01 95 996.3
20190526041803 45 172 2.0 2.0 0.00 0.13 0.01 95 996.2
20190526041603 44 174 1.0 2.0 0.00 0.13 0.01 95 996.2
20190526041403 44 175 1.0 2.0 0.00 0.13 0.01 95 996.3
20190526041203 44 177 2.0 3.0 0.00 0.13 0.01 95 996.3
20190526041003 44 169 1.0 3.0 0.00 0.13 0.01 95 996.3
20190526040803 44 168 2.0 3.0 0.00 0.13 0.01 95 996.2
20190526040603 44 163 2.0 3.0 0.00 0.13 0.01 95 996.2
20190526040403 44 151 1.0 3.0 0.00 0.13 0.01 95 996.1
20190526040204 44 153 1.0 3.0 0.00 0.13 0.01 95 996.2
20190526040003 44 163 1.0 3.0 0.00 0.13 0.01 95 996.2
20190526035803 44 161 2.0 3.0 0.00 0.13 0.01 95 996.3
20190526035603 44 171 2.0 3.0 0.00 0.13 0.01 95 996.3
20190526035403 44 210 2.0 3.0 0.00 0.13 0.01 95 996.4
20190526035203 44 219 0.0 2.0 0.00 0.13 0.01 95 996.4
20190526035003 44 245 0.0 2.0 0.00 0.13 0.01 95 996.5
20190526034803 44 226 0.0 2.0 0.01 0.13 0.01 95 996.4
20190526034603 44 212 0.0 2.0 0.01 0.13 0.01 95 996.4
20190526034403 44 211 0.0 2.0 0.01 0.13 0.01 95 996.4
20190526034203 44 204 0.0 2.0 0.01 0.13 0.01 95 996.5
20190526034003 44 181 0.0 2.0 0.01 0.13 0.01 95 996.5
20190526033804 44 204 2.0 2.0 0.01 0.13 0.01 95 996.3
20190526033604 44 225 0.0 2.0 0.01 0.13 0.01 95 996.4
20190526033404 44 232 0.0 2.0 0.01 0.13 0.01 95 996.5
20190526033204 44 232 0.0 2.0 0.01 0.13 0.01 95 996.4
20190526033004 44 249 0.0 2.0 0.01 0.13 0.01 95 996.3
20190526032804 44 268 1.0 2.0 0.01 0.13 0.01 95 996.7
20190526032604 44 270 0.0 2.0 0.01 0.13 0.01 95 996.6
20190526032404 44 270 0.0 2.0 0.01 0.13 0.01 95 996.5
20190526032204 44 269 0.0 2.0 0.01 0.13 0.01 95 996.5
20190526032004 44 253 2.0 2.0 0.01 0.13 0.01 95 996.5
20190526031804 44 227 2.0 2.0 0.01 0.13 0.01 95 996.5
20190526031604 44 194 0.0 2.0 0.01 0.13 0.01 95 996.4
20190526031404 44 188 0.0 2.0 0.01 0.13 0.01 95 996.3
20190526031204 44 189 0.0 2.0 0.01 0.13 0.01 95 996.6
20190526031004 44 195 1.0 4.0 0.01 0.13 0.01 95 996.6
20190526030804 44 188 0.0 4.0 0.01 0.13 0.01 95 996.5
20190526030604 44 187 2.0 4.0 0.01 0.13 0.01 95 996.7
20190526030404 44 189 2.0 4.0 0.01 0.13 0.01 95 996.8
20190526030204 44 189 1.0 4.0 0.01 0.13 0.01 95 996.7
20190526030004 44 176 3.0 4.0 0.01 0.13 0.01 95 996.7
20190526025803 44 182 0.0 2.0 0.01 0.13 0.01 95 996.7
20190526025604 44 193 0.0 2.0 0.01 0.13 0.01 95 996.6
20190526025404 44 191 1.0 2.0 0.01 0.13 0.01 95 996.7
20190526025204 44 189 1.0 2.0 0.01 0.13 0.01 95 996.8
20190526025004 44 196 0.0 2.0 0.01 0.13 0.01 95 996.7
20190526024804 44 197 1.0 2.0 0.00 0.12 0.00 95 996.7
20190526024604 44 214 1.0 2.0 0.00 0.12 0.00 95 996.7
20190526024404 44 231 0.0 2.0 0.00 0.12 0.00 95 996.7
20190526024203 44 252 2.0 2.0 0.00 0.12 0.00 95 996.8
20190526024003 44 260 0.0 2.0 0.00 0.12 0.00 95 996.7
20190526023803 44 256 0.0 2.0 0.00 0.12 0.00 95 996.7
20190526023603 44 258 1.0 2.0 0.00 0.12 0.00 95 996.5
20190526023403 44 262 1.0 2.0 0.00 0.12 0.00 95 996.8
20190526023204 44 260 1.0 2.0 0.00 0.12 0.00 95 996.5
20190526023003 44 253 1.0 2.0 0.00 0.12 0.00 95 996.8
20190526022804 44 252 2.0 2.0 0.00 0.12 0.00 95 996.8
20190526022603 44 243 2.0 2.0 0.00 0.12 0.00 95 996.9
20190526022403 44 237 2.0 2.0 0.00 0.12 0.00 95 996.8
20190526022203 44 239 2.0 2.0 0.00 0.12 0.00 95 996.6
20190526022003 44 241 2.0 2.0 0.00 0.12 0.00 95 996.9
20190526021804 44 239 2.0 2.0 0.00 0.12 0.00 95 996.7
20190526021603 44 234 2.0 2.0 0.00 0.12 0.00 95 996.8
20190526021403 44 228 2.0 2.0 0.00 0.12 0.00 95 996.7
20190526021203 44 219 1.0 2.0 0.00 0.12 0.00 95 996.7
20190526021003 44 210 1.0 2.0 0.00 0.12 0.00 95 997.0
20190526020803 44 196 1.0 2.0 0.00 0.12 0.00 95 996.9
20190526020603 44 198 0.0 1.0 0.00 0.12 0.00 95 996.6
20190526020403 44 270 0.0 1.0 0.00 0.12 0.00 95 996.8
20190526020203 44 90 0.0 2.0 0.00 0.12 0.00 95 996.8
20190526020003 44 103 0.0 2.0 0.00 0.12 0.00 95 996.8
20190526015803 44 115 0.0 2.0 0.00 0.12 0.00 95 997.0
20190526015603 44 127 0.0 2.0 0.00 0.12 0.00 95 996.7
20190526015403 44 127 0.0 3.0 0.00 0.12 0.00 94 997.0
20190526015203 44 156 1.0 4.0 0.00 0.12 0.00 94 997.0
20190526015003 44 181 1.0 4.0 0.00 0.12 0.00 94 996.8
20190526014803 44 188 1.0 4.0 0.00 0.12 0.00 94 996.8
20190526014603 44 200 0.0 4.0 0.00 0.12 0.00 94 996.8
20190526014403 44 209 2.0 4.0 0.00 0.12 0.00 94 996.9
20190526014203 44 225 1.0 3.0 0.00 0.12 0.00 93 996.7
20190526014003 44 225 1.0 3.0 0.00 0.12 0.00 93 996.8
20190526013803 44 232 1.0 3.0 0.00 0.12 0.00 93 996.5
20190526013603 44 232 2.0 3.0 0.00 0.12 0.00 93 996.9
20190526013404 44 235 2.0 3.0 0.00 0.12 0.00 93 996.7
20190526013203 44 234 2.0 3.0 0.00 0.12 0.00 92 996.9
20190526013003 44 237 2.0 3.0 0.00 0.12 0.00 92 996.8
20190526012803 44 233 2.0 2.0 0.00 0.12 0.00 92 996.7
20190526012603 44 244 0.0 2.0 0.00 0.12 0.00 92 996.9
20190526012403 44 0 0.0 0.0 0.00 0.12 0.00 92 996.9
20190526012203 44 0 0.0 0.0 0.00 0.12 0.00 92 996.9
20190526012003 44 0 0.0 0.0 0.00 0.12 0.00 92 996.8
20190526011803 44 0 0.0 0.0 0.00 0.12 0.00 92 997.2
20190526011603 44 0 0.0 0.0 0.00 0.12 0.00 92 997.0
20190526011403 44 0 0.0 0.0 0.00 0.12 0.00 92 997.1
20190526011204 44 0 0.0 0.0 0.00 0.12 0.00 91 997.1
20190526011004 44 0 0.0 0.0 0.00 0.12 0.00 91 997.2
20190526010804 44 0 0.0 0.0 0.00 0.12 0.00 91 996.9
20190526010604 44 311 0.0 2.0 0.00 0.12 0.00 91 997.0
20190526010404 44 289 0.0 2.0 0.00 0.12 0.00 91 996.9
20190526010204 44 286 0.0 2.0 0.00 0.12 0.00 91 996.9
20190526010004 44 286 0.0 2.0 0.00 0.12 0.00 91 997.1
20190526005804 44 286 0.0 2.0 0.00 0.12 0.00 91 997.2
20190526005604 44 276 1.0 2.0 0.00 0.12 0.00 91 997.0
20190526005404 44 281 1.0 2.0 0.00 0.12 0.00 91 997.1
20190526005204 44 0 0.0 0.0 0.00 0.12 0.00 91 997.2
20190526005004 44 0 0.0 0.0 0.00 0.12 0.00 90 997.1
20190526004804 44 0 0.0 0.0 0.00 0.12 0.00 90 997.3
20190526004604 44 260 0.0 2.0 0.00 0.12 0.00 90 997.3
20190526004403 44 275 0.0 2.0 0.00 0.12 0.00 91 997.1
20190526004204 44 264 0.0 2.0 0.00 0.12 0.00 91 997.2
20190526004004 44 260 0.0 4.0 0.00 0.12 0.00 91 997.1
20190526003804 44 255 0.0 4.0 0.00 0.12 0.00 91 997.3
20190526003604 44 252 1.0 4.0 0.00 0.12 0.00 91 997.2
20190526003404 44 243 2.0 4.0 0.00 0.12 0.00 91 997.1
20190526003204 44 238 0.0 4.0 0.00 0.12 0.00 91 997.3
20190526003004 45 236 3.0 4.0 0.00 0.12 0.00 91 997.3
20190526002803 45 238 1.0 4.0 0.00 0.12 0.00 91 997.2
20190526002604 45 234 2.0 4.0 0.00 0.12 0.00 91 997.2
20190526002403 45 232 3.0 4.0 0.00 0.12 0.00 91 997.3
20190526002203 45 233 2.0 4.0 0.00 0.12 0.00 91 997.2
20190526002003 45 228 2.0 4.0 0.00 0.12 0.00 91 997.0
20190526001804 45 223 3.0 4.0 0.00 0.12 0.00 91 997.0
20190526001604 45 207 2.0 4.0 0.00 0.12 0.00 91 997.3
20190526001403 45 191 3.0 4.0 0.00 0.12 0.00 91 997.2
20190526001203 45 180 2.0 4.0 0.00 0.12 0.00 91 997.3
20190526001003 45 176 2.0 4.0 0.00 0.12 0.00 91 997.2
20190526000803 45 174 2.0 4.0 0.00 0.12 0.00 91 997.4
20190526000603 45 183 2.0 4.0 0.00 0.12 0.00 91 997.3
20190526000403 45 188 2.0 4.0 0.00 0.12 0.00 92 997.5
20190526000203 45 190 2.0 4.0 0.00 0.12 0.00 92 997.4
20190526000003 45 197 2.0 4.0 0.00 0.12 0.00 92 997.6
20190525235803 45 201 2.0 4.0 0.00 0.12 0.00 92 997.5
20190525235603 45 209 3.0 4.0 0.00 0.12 0.00 92 997.5
20190525235403 45 203 2.0 4.0 0.00 0.12 0.00 92 997.4
20190525235203 45 200 2.0 4.0 0.00 0.12 0.00 92 997.6
20190525235003 45 196 3.0 4.0 0.00 0.12 0.00 92 997.6
20190525234803 45 189 2.0 3.0 0.00 0.12 0.00 91 997.4
20190525234604 45 182 2.0 3.0 0.00 0.12 0.00 91 997.5
20190525234403 45 190 2.0 3.0 0.00 0.12 0.00 91 997.7
20190525234203 45 194 2.0 3.0 0.00 0.12 0.00 91 997.5
20190525234004 45 197 2.0 3.0 0.00 0.12 0.00 91 997.7
20190525233803 45 193 2.0 4.0 0.00 0.12 0.00 91 997.6
20190525233603 45 190 2.0 4.0 0.00 0.12 0.00 91 997.7
20190525233403 45 186 2.0 4.0 0.00 0.12 0.00 91 997.6
20190525233203 45 191 2.0 4.0 0.00 0.12 0.00 90 997.4
20190525233003 45 195 1.0 4.0 0.00 0.12 0.00 90 997.6
20190525232803 45 201 2.0 7.0 0.00 0.12 0.00 90 997.7
20190525232603 45 204 1.0 7.0 0.00 0.12 0.00 90 997.5
20190525232403 45 210 2.0 7.0 0.00 0.12 0.00 90 997.7
20190525232203 45 214 2.0 7.0 0.00 0.12 0.00 90 997.8
20190525232003 45 215 2.0 7.0 0.00 0.12 0.00 90 997.8
20190525231803 45 228 5.0 7.0 0.00 0.12 0.00 90 997.8
20190525231603 45 235 2.0 4.0 0.00 0.12 0.00 89 997.8
20190525231403 45 242 3.0 4.0 0.00 0.12 0.00 89 997.8
20190525231203 45 236 2.0 4.0 0.00 0.12 0.00 88 997.8
20190525231003 46 223 2.0 5.0 0.00 0.12 0.00 82 997.8
20190525230803 46 208 2.0 5.0 0.00 0.12 0.00 82 997.7
20190525230603 46 195 3.0 5.0 0.00 0.12 0.00 82 997.7
20190525230403 46 187 3.0 5.0 0.00 0.12 0.00 82 997.8
20190525230203 46 173 3.0 5.0 0.00 0.12 0.00 82 997.7
20190525230004 46 175 4.0 5.0 0.00 0.12 0.00 82 998.0
20190525225804 46 179 2.0 4.0 0.00 0.12 0.00 82 997.9
20190525225604 46 203 3.0 4.0 0.00 0.12 0.00 81 997.9
20190525225404 46 203 2.0 4.0 0.00 0.12 0.00 81 997.9
20190525225204 46 206 2.0 4.0 0.00 0.12 0.00 81 998.0
20190525225004 46 192 2.0 5.0 0.00 0.12 0.00 81 998.1
20190525224804 46 179 3.0 6.0 0.00 0.12 0.00 81 998.0
20190525224604 46 155 3.0 6.0 0.00 0.12 0.00 82 997.8
20190525224404 46 146 2.0 8.0 0.00 0.12 0.00 82 997.9
20190525224204 46 147 3.0 8.0 0.00 0.12 0.00 82 997.8
20190525224004 46 149 2.0 8.0 0.00 0.12 0.00 82 997.7
20190525223804 46 145 3.0 8.0 0.00 0.12 0.00 82 997.9
20190525223604 46 148 4.0 8.0 0.01 0.12 0.00 82 997.8
20190525223404 46 150 4.0 8.0 0.01 0.12 0.00 83 997.8
20190525223204 46 147 4.0 8.0 0.01 0.12 0.00 84 997.8
20190525223004 46 145 4.0 7.0 0.01 0.12 0.00 84 997.7
20190525222804 46 155 4.0 5.0 0.01 0.12 0.00 86 997.7
20190525222604 47 160 2.0 5.0 0.01 0.12 0.00 86 997.6
20190525222404 47 174 2.0 5.0 0.01 0.12 0.00 87 997.6
20190525222204 47 179 4.0 7.0 0.01 0.12 0.00 87 997.7
20190525222003 47 179 4.0 7.0 0.01 0.12 0.00 88 997.7
20190525221804 47 174 2.0 8.0 0.01 0.12 0.00 88 997.7
20190525221603 47 189 4.0 8.0 0.01 0.12 0.00 88 997.7
20190525221404 47 173 4.0 9.0 0.01 0.12 0.00 89 997.6
20190525221204 47 170 4.0 9.0 0.01 0.12 0.00 89 997.5
20190525221003 47 165 4.0 9.0 0.01 0.12 0.00 89 997.8
20190525220804 47 164 5.0 9.0 0.02 0.12 0.00 90 997.6
20190525220603 47 156 5.0 9.0 0.02 0.12 0.00 90 997.6
20190525220404 47 158 3.0 8.0 0.02 0.12 0.00 90 997.9
20190525220204 47 159 4.0 9.0 0.02 0.12 0.00 91 997.6
20190525220003 47 159 4.0 9.0 0.02 0.12 0.00 91 997.8
20190525215803 47 157 3.0 9.0 0.04 0.12 0.12 91 997.8
20190525215604 47 147 4.0 9.0 0.04 0.12 0.12 91 997.7
20190525215403 47 150 4.0 9.0 0.05 0.12 0.12 91 997.7
20190525215203 47 148 6.0 9.0 0.05 0.12 0.12 92 997.6
20190525215003 47 152 5.0 7.0 0.05 0.12 0.12 92 997.7
20190525214803 47 154 4.0 7.0 0.05 0.12 0.12 92 997.8
20190525214603 47 162 4.0 7.0 0.05 0.12 0.12 92 997.7
20190525214403 47 154 3.0 5.0 0.05 0.12 0.12 93 997.7
20190525214203 48 158 3.0 4.0 0.05 0.12 0.12 93 997.7
20190525214003 48 160 2.0 3.0 0.05 0.12 0.12 93 997.5
20190525213803 48 162 1.0 4.0 0.04 0.11 0.11 93 997.6
20190525213603 48 171 1.0 4.0 0.04 0.11 0.11 93 997.8
20190525213403 48 169 2.0 4.0 0.04 0.11 0.11 93 997.7
20190525213203 48 171 2.0 5.0 0.04 0.11 0.11 93 997.8
20190525213003 48 173 2.0 5.0 0.04 0.11 0.11 93 998.0
20190525212803 48 172 2.0 5.0 0.04 0.11 0.11 93 997.8
20190525212603 48 171 3.0 6.0 0.04 0.11 0.11 93 997.7
20190525212403 48 175 3.0 6.0 0.04 0.11 0.11 93 997.6
20190525212203 48 178 4.0 6.0 0.04 0.11 0.11 94 998.0
20190525212003 48 176 3.0 6.0 0.04 0.11 0.11 94 997.9
20190525211803 48 174 2.0 6.0 0.04 0.11 0.11 94 997.8
20190525211603 48 172 4.0 6.0 0.04 0.11 0.11 94 997.9
20190525211403 48 160 2.0 6.0 0.04 0.11 0.11 94 998.0
20190525211203 48 152 4.0 6.0 0.04 0.11 0.11 94 997.9
20190525211003 48 141 2.0 4.0 0.02 0.09 0.09 94 997.9
20190525210803 48 137 2.0 4.0 0.02 0.09 0.09 94 997.6
20190525210603 48 134 2.0 4.0 0.02 0.09 0.09 94 998.0
20190525210404 48 154 2.0 3.0 0.02 0.09 0.09 94 997.8
20190525210204 48 177 1.0 4.0 0.02 0.09 0.09 94 997.8
20190525210003 48 193 2.0 4.0 0.01 0.08 0.08 94 997.9
20190525205803 48 209 2.0 4.0 0.01 0.08 0.08 94 997.8
20190525205605 48 205 2.0 4.0 0.01 0.08 0.08 94 997.9
20190525205403 48 197 2.0 4.0 0.00 0.07 0.07 94 997.9
20190525205203 48 188 1.0 4.0 0.00 0.07 0.07 94 997.9
20190525205003 48 186 0.0 4.0 0.00 0.07 0.07 94 997.9
20190525204803 48 166 2.0 4.0 0.00 0.07 0.07 94 997.9
20190525204603 48 165 1.0 3.0 0.00 0.07 0.07 94 998.0
20190525204404 48 166 0.0 2.0 0.00 0.07 0.07 94 998.1
20190525204204 48 175 0.0 2.0 0.00 0.07 0.07 94 997.8
20190525204005 48 180 2.0 2.0 0.00 0.07 0.07 94 997.9
20190525203804 48 168 0.0 4.0 0.00 0.07 0.07 94 998.0
20190525203604 48 190 0.0 4.0 0.00 0.07 0.07 94 998.0
20190525203404 48 207 0.0 4.0 0.00 0.07 0.07 94 997.9
20190525203204 48 227 0.0 4.0 0.00 0.07 0.07 94 997.9
20190525203004 48 243 1.0 4.0 0.00 0.07 0.07 94 998.2
20190525202805 48 270 1.0 2.0 0.01 0.07 0.07 94 997.9
20190525202604 48 270 2.0 2.0 0.01 0.07 0.07 94 998.1
20190525202404 48 270 1.0 2.0 0.01 0.07 0.07 94 998.1
20190525202204 48 270 1.0 2.0 0.01 0.07 0.07 94 998.2
20190525202004 48 270 0.0 2.0 0.01 0.07 0.07 94 998.1
20190525201804 48 270 0.0 2.0 0.01 0.07 0.07 94 998.1
20190525201604 48 270 1.0 2.0 0.01 0.07 0.07 94 998.3
20190525201404 48 270 0.0 2.0 0.01 0.07 0.07 94 998.1
20190525201204 48 270 2.0 2.0 0.01 0.07 0.07 94 998.1
20190525201004 48 270 2.0 2.0 0.01 0.07 0.07 94 998.2
20190525200803 48 270 2.0 2.0 0.01 0.07 0.07 94 998.2
20190525200604 48 270 0.0 2.0 0.01 0.07 0.07 94 998.2
20190525200404 48 270 1.0 2.0 0.01 0.07 0.07 94 998.3
20190525200204 48 270 0.0 2.0 0.01 0.07 0.07 94 998.3
20190525200004 48 270 0.0 2.0 0.01 0.07 0.07 94 998.2
20190525195805 49 270 0.0 2.0 0.01 0.07 0.07 94 998.4
20190525195604 49 270 0.0 2.0 0.01 0.07 0.07 93 998.4
20190525195404 49 270 0.0 2.0 0.01 0.07 0.07 93 998.4
20190525195204 49 270 1.0 2.0 0.01 0.07 0.07 93 998.3
20190525195004 49 270 0.0 2.0 0.01 0.07 0.07 93 998.4
20190525194803 49 270 2.0 3.0 0.01 0.07 0.07 93 998.3
20190525194604 49 270 1.0 3.0 0.01 0.07 0.07 93 998.5
20190525194403 49 270 0.0 3.0 0.01 0.07 0.07 93 998.4
20190525194203 49 270 0.0 3.0 0.01 0.07 0.07 93 998.5
20190525194004 49 270 0.0 3.0 0.02 0.07 0.07 93 998.5
20190525193803 49 270 2.0 2.0 0.02 0.07 0.07 93 998.5
20190525193603 49 270 1.0 2.0 0.02 0.07 0.07 93 998.6
20190525193403 49 270 0.0 2.0 0.02 0.07 0.07 93 998.5
20190525193204 49 270 0.0 2.0 0.02 0.07 0.07 93 998.7
20190525193003 49 270 1.0 2.0 0.02 0.07 0.07 93 998.5
20190525171804 50 185 2.0 3.0 0.00 0.01 0.01 85 999.7
20190525171604 50 190 2.0 3.0 0.00 0.01 0.01 85 999.9
20190525171404 50 172 1.0 2.0 0.00 0.01 0.01 85 999.7
20190525171204 50 182 2.0 3.0 0.00 0.01 0.01 85 999.8
20190525171004 50 182 2.0 4.0 0.00 0.01 0.01 85 1000.0
20190525170804 50 178 1.0 4.0 0.00 0.01 0.01 85 999.9
20190525170604 51 174 2.0 4.0 0.00 0.01 0.01 85 999.9
20190525170404 51 173 1.0 4.0 0.00 0.01 0.01 85 1000.0
20190525170204 51 172 2.0 4.0 0.00 0.01 0.01 86 999.8
20190525170004 51 163 2.0 3.0 0.00 0.01 0.01 86 999.9
20190525165804 51 158 2.0 3.0 0.00 0.01 0.01 86 999.9
20190525165604 51 162 1.0 2.0 0.00 0.01 0.01 86 999.8
20190525165404 51 154 1.0 4.0 0.00 0.01 0.01 86 1000.1
20190525165203 51 155 0.0 4.0 0.00 0.01 0.01 86 1000.0
20190525165004 51 151 2.0 4.0 0.00 0.01 0.01 86 1000.0
20190525164803 50 154 2.0 4.0 0.00 0.01 0.01 86 1000.0
20190525164603 50 154 2.0 4.0 0.00 0.01 0.01 86 1000.2
20190525164403 50 164 2.0 2.0 0.00 0.01 0.01 87 1000.1
20190525164204 50 169 0.0 4.0 0.00 0.01 0.01 87 1000.2
20190525164003 50 165 2.0 4.0 0.00 0.01 0.01 87 1000.2
20190525163803 50 161 0.0 4.0 0.00 0.01 0.01 87 1000.1
20190525163603 50 162 1.0 4.0 0.00 0.01 0.01 87 1000.3
20190525163403 50 171 2.0 4.0 0.00 0.01 0.01 87 1000.1
20190525163203 50 179 1.0 4.0 0.00 0.01 0.01 87 1000.3
20190525163003 50 185 2.0 4.0 0.00 0.01 0.01 87 1000.3
20190525162803 50 189 1.0 4.0 0.00 0.01 0.01 87 1000.3
20190525162603 50 185 2.0 4.0 0.00 0.01 0.01 87 1000.3
20190525162403 50 184 2.0 4.0 0.00 0.01 0.01 87 1000.3
20190525162203 50 183 1.0 4.0 0.00 0.01 0.01 87 1000.5
20190525162003 50 191 2.0 3.0 0.00 0.01 0.01 87 1000.5
20190525161803 50 207 2.0 3.0 0.00 0.01 0.01 87 1000.4
20190525161603 50 217 2.0 2.0 0.00 0.01 0.01 87 1000.4
20190525161403 50 215 2.0 2.0 0.00 0.01 0.01 86 1000.6
20190525161203 50 218 1.0 2.0 0.00 0.01 0.01 86 1000.4
20190525161003 50 234 2.0 2.0 0.00 0.01 0.01 86 1000.5
20190525160803 50 240 0.0 2.0 0.00 0.01 0.01 86 1000.6
20190525160603 50 229 1.0 2.0 0.00 0.01 0.01 86 1000.5
20190525160403 50 224 0.0 2.0 0.00 0.01 0.01 86 1000.4
20190525160203 50 197 1.0 2.0 0.00 0.01 0.01 86 1000.6
20190525160003 50 173 1.0 3.0 0.00 0.01 0.01 86 1000.4
20190525155803 50 167 0.0 3.0 0.00 0.01 0.01 86 1000.6
20190525155603 50 168 1.0 4.0 0.00 0.01 0.01 86 1000.5
20190525155403 50 172 1.0 4.0 0.00 0.01 0.01 86 1000.6
20190525155203 50 181 0.0 4.0 0.00 0.01 0.01 85 1000.5
20190525155004 50 181 2.0 5.0 0.00 0.01 0.01 85 1000.7
20190525154803 50 182 2.0 5.0 0.00 0.01 0.01 85 1000.6
20190525154603 50 174 2.0 5.0 0.00 0.01 0.01 85 1000.7
20190525154403 50 176 2.0 5.0 0.00 0.01 0.01 85 1000.7
20190525154203 50 167 3.0 5.0 0.00 0.01 0.01 85 1000.8
20190525154003 50 178 2.0 4.0 0.01 0.01 0.01 85 1000.8
20190525153803 50 195 2.0 4.0 0.01 0.01 0.01 85 1000.8
20190525153603 50 204 2.0 4.0 0.01 0.01 0.01 85 1000.8
20190525153403 50 187 3.0 5.0 0.01 0.01 0.01 85 1000.8
20190525153203 50 194 2.0 5.0 0.01 0.01 0.01 84 1000.7
20190525153003 51 189 2.0 5.0 0.01 0.01 0.01 84 1000.9
20190525152803 51 175 1.0 5.0 0.01 0.01 0.01 84 1000.9
20190525152603 51 164 2.0 7.0 0.01 0.01 0.01 84 1001.1
20190525152404 51 166 2.0 7.0 0.01 0.01 0.01 84 1000.9
20190525152203 51 163 4.0 7.0 0.01 0.01 0.01 84 1000.6
20190525152003 51 156 2.0 7.0 0.01 0.01 0.01 84 1001.1
20190525151804 51 161 2.0 7.0 0.01 0.01 0.01 83 1000.8
20190525151604 51 174 4.0 7.0 0.01 0.01 0.01 83 1000.9
20190525151404 52 183 4.0 8.0 0.01 0.01 0.01 83 1000.7
20190525151204 52 177 3.0 8.0 0.01 0.01 0.01 83 1000.9
20190525151004 52 173 2.0 8.0 0.01 0.01 0.01 83 1000.8
20190525150804 52 185 1.0 8.0 0.01 0.01 0.01 83 1000.7
20190525150604 52 180 2.0 8.0 0.01 0.01 0.01 82 1000.9
20190525150404 52 179 4.0 8.0 0.01 0.01 0.01 82 1001.0
20190525150204 52 186 3.0 8.0 0.01 0.01 0.01 82 1000.8
20190525150004 52 189 5.0 8.0 0.01 0.01 0.01 82 1001.0
20190525145804 52 173 6.0 8.0 0.01 0.01 0.01 82 1001.0
20190525145604 52 173 2.0 7.0 0.01 0.01 0.01 82 1001.0
20190525145404 52 168 2.0 7.0 0.01 0.01 0.01 82 1000.9
20190525145204 52 168 4.0 7.0 0.01 0.01 0.01 81 1001.1
20190525145005 52 168 4.0 7.0 0.01 0.01 0.01 81 1001.0
20190525144804 52 166 2.0 5.0 0.01 0.01 0.01 81 1001.1
20190525144604 52 164 4.0 5.0 0.01 0.01 0.01 80 1001.1
20190525144404 52 177 3.0 6.0 0.01 0.01 0.01 80 1001.1
20190525144203 52 180 4.0 7.0 0.01 0.01 0.01 80 1001.0
20190525144004 52 173 2.0 7.0 0.00 0.00 0.00 79 1001.0
20190525143803 52 184 2.0 8.0 0.00 0.00 0.00 78 1000.9
20190525143603 52 182 2.0 8.0 0.00 0.00 0.00 77 1001.0
20190525143404 52 171 3.0 8.0 0.00 0.00 0.00 76 1000.8
20190525143204 53 171 2.0 8.0 0.00 0.00 0.00 76 1001.0
20190525143004 53 172 2.0 8.0 0.00 0.00 0.00 76 1001.0
20190525142804 53 168 5.0 8.0 0.00 0.00 0.00 76 1001.0
20190525142603 53 164 2.0 4.0 0.00 0.00 0.00 76 1001.0
20190525142404 53 160 3.0 4.0 0.00 0.00 0.00 76 1001.1
20190525142203 53 151 2.0 4.0 0.00 0.00 0.00 76 1001.0
20190525142005 53 153 2.0 4.0 0.00 0.00 0.00 76 1001.1
20190525141803 53 167 0.0 5.0 0.00 0.00 0.00 76 1001.1
20190525141603 53 172 2.0 5.0 0.00 0.00 0.00 76 1001.1
20190525141403 53 186 2.0 5.0 0.00 0.00 0.00 75 1001.2
20190525141203 53 191 3.0 5.0 0.00 0.00 0.00 76 1001.1
20190525141003 53 188 2.0 5.0 0.00 0.00 0.00 76 1001.1
20190525140803 54 186 2.0 4.0 0.00 0.00 0.00 77 1001.2
20190525140603 54 179 0.0 4.0 0.00 0.00 0.00 77 1001.3
20190525140403 54 172 2.0 4.0 0.00 0.00 0.00 78 1001.2
20190525140203 54 166 2.0 4.0 0.00 0.00 0.00 78 1001.4
20190525140004 54 177 2.0 4.0 0.00 0.00 0.00 78 1001.2
20190525135803 54 160 3.0 4.0 0.00 0.00 0.00 78 1001.2
20190525135603 54 164 2.0 2.0 0.00 0.00 0.00 79 1001.3
20190525135403 54 153 2.0 4.0 0.00 0.00 0.00 79 1001.3
20190525135203 54 157 0.0 4.0 0.00 0.00 0.00 79 1001.3
20190525135003 54 162 1.0 4.0 0.00 0.00 0.00 79 1001.2
20190525134803 54 150 1.0 4.0 0.00 0.00 0.00 78 1001.4
20190525134603 54 153 2.0 5.0 0.00 0.00 0.00 78 1001.2
20190525134403 54 147 3.0 5.0 0.00 0.00 0.00 77 1001.6
20190525134203 54 145 2.0 5.0 0.00 0.00 0.00 77 1001.6
20190525134003 54 129 2.0 5.0 0.00 0.00 0.00 77 1001.6
20190525133803 54 148 2.0 5.0 0.00 0.00 0.00 77 1001.5
20190525133603 54 157 4.0 5.0 0.00 0.00 0.00 77 1001.6
20190525133403 54 167 2.0 5.0 0.00 0.00 0.00 77 1001.5
20190525133203 54 157 3.0 5.0 0.00 0.00 0.00 76 1001.5
20190525133003 54 162 4.0 7.0 0.00 0.00 0.00 76 1001.4
20190525132803 53 147 2.0 7.0 0.00 0.00 0.00 76 1001.5
20190525132603 53 149 3.0 7.0 0.00 0.00 0.00 76 1001.4
20190525132403 53 152 2.0 7.0 0.00 0.00 0.00 75 1001.5
20190525132203 53 161 2.0 7.0 0.00 0.00 0.00 74 1001.4
20190525132003 53 168 4.0 8.0 0.00 0.00 0.00 74 1001.5
20190525131803 53 176 4.0 8.0 0.00 0.00 0.00 73 1001.6
20190525131603 53 171 2.0 8.0 0.00 0.00 0.00 73 1001.7
20190525131403 53 162 2.0 8.0 0.00 0.00 0.00 72 1001.5
20190525131203 53 160 4.0 8.0 0.00 0.00 0.00 72 1001.6
20190525131003 53 161 5.0 8.0 0.00 0.00 0.00 72 1001.5
20190525130803 53 158 2.0 5.0 0.00 0.00 0.00 72 1001.7
20190525130603 53 148 2.0 5.0 0.00 0.00 0.00 73 1001.6
20190525130403 53 152 2.0 8.0 0.00 0.00 0.00 73 1001.7
20190525130203 53 149 0.0 8.0 0.00 0.00 0.00 73 1001.5
20190525130004 53 153 4.0 8.0 0.00 0.00 0.00 73 1001.8
20190525125804 53 150 4.0 8.0 0.00 0.00 0.00 73 1001.9
20190525125604 53 168 0.0 8.0 0.00 0.00 0.00 73 1001.6
20190525125404 53 159 6.0 8.0 0.00 0.00 0.00 73 1001.8
20190525125204 53 173 2.0 3.0 0.00 0.00 0.00 73 1001.7
20190525125004 54 170 2.0 3.0 0.00 0.00 0.00 73 1001.6
20190525124804 54 185 1.0 3.0 0.00 0.00 0.00 73 1001.5
20190525124604 54 173 2.0 4.0 0.00 0.00 0.00 73 1001.6
20190525124404 54 174 2.0 4.0 0.00 0.00 0.00 73 1001.6
20190525124204 54 167 2.0 4.0 0.00 0.00 0.00 74 1001.6
20190525124004 54 156 1.0 4.0 0.00 0.00 0.00 74 1001.6
20190525123804 54 145 2.0 4.0 0.00 0.00 0.00 74 1001.6
20190525123604 54 144 2.0 4.0 0.00 0.00 0.00 75 1002.0
20190525123404 54 131 3.0 4.0 0.00 0.00 0.00 76 1001.6
20190525123204 54 125 1.0 4.0 0.00 0.00 0.00 76 1002.0
20190525123005 54 113 0.0 4.0 0.00 0.00 0.00 75 1001.8
20190525122804 53 106 2.0 4.0 0.00 0.00 0.00 75 1001.9
20190525122604 53 111 1.0 4.0 0.00 0.00 0.00 75 1001.9
20190525122404 53 119 2.0 4.0 0.00 0.00 0.00 75 1001.9
20190525122204 53 122 2.0 4.0 0.00 0.00 0.00 74 1001.9
20190525122004 53 142 3.0 4.0 0.00 0.00 0.00 74 1002.0
20190525121803 53 173 2.0 4.0 0.00 0.00 0.00 74 1001.9
20190525121604 53 190 2.0 6.0 0.00 0.00 0.00 75 1001.9
20190525121404 53 177 1.0 6.0 0.00 0.00 0.00 75 1002.1
20190525121204 53 181 2.0 6.0 0.00 0.00 0.00 76 1001.9
20190525121004 53 183 2.0 6.0 0.00 0.00 0.00 76 1002.0
20190525120803 53 182 2.0 6.0 0.00 0.00 0.00 75 1001.9
20190525120603 53 187 2.0 5.0 0.00 0.00 0.00 75 1002.0
20190525120404 53 196 2.0 5.0 0.00 0.00 0.00 74 1002.1
20190525120203 53 188 3.0 5.0 0.00 0.00 0.00 74 1002.1
20190525120004 53 191 3.0 5.0 0.00 0.00 0.00 74 1002.1
20190525115804 53 199 4.0 5.0 0.00 0.00 0.00 73 1002.0
20190525115603 54 186 4.0 5.0 0.00 0.00 0.00 73 1002.2
20190525115403 54 157 2.0 4.0 0.00 0.00 0.00 72 1002.0
20190525115203 54 163 3.0 7.0 0.00 0.00 0.00 72 1002.2
20190525115005 54 156 2.0 7.0 0.00 0.00 0.00 72 1002.2
20190525114804 54 145 0.0 7.0 0.00 0.00 0.00 72 1002.3
20190525114603 54 147 3.0 7.0 0.00 0.00 0.00 72 1002.2
20190525114404 54 150 3.0 7.0 0.00 0.00 0.00 72 1002.2
20190525114203 54 150 4.0 7.0 0.00 0.00 0.00 72 1002.1
20190525114003 54 145 2.0 7.0 0.00 0.00 0.00 72 1002.0
20190525113804 54 154 4.0 7.0 0.00 0.00 0.00 71 1002.0
20190525113603 54 152 2.0 7.0 0.00 0.00 0.00 71 1002.0
20190525113403 54 161 4.0 7.0 0.00 0.00 0.00 71 1002.2
20190525113203 54 159 4.0 7.0 0.00 0.00 0.00 71 1002.3
20190525113003 54 172 2.0 6.0 0.00 0.00 0.00 71 1002.0
20190525112803 54 160 2.0 6.0 0.00 0.00 0.00 71 1002.3
20190525112603 54 169 3.0 6.0 0.00 0.00 0.00 71 1001.9
20190525112403 54 168 2.0 6.0 0.00 0.00 0.00 71 1002.1
20190525112203 54 170 4.0 6.0 0.00 0.00 0.00 71 1002.1
20190525112003 54 161 2.0 6.0 0.00 0.00 0.00 71 1002.2
20190525111803 54 180 4.0 6.0 0.00 0.00 0.00 71 1002.2
20190525111603 54 176 2.0 6.0 0.00 0.00 0.00 72 1002.0
20190525111403 54 182 2.0 6.0 0.00 0.00 0.00 71 1002.1
20190525111203 54 177 4.0 6.0 0.00 0.00 0.00 72 1002.1
20190525111003 54 179 4.0 6.0 0.00 0.00 0.00 72 1002.2
20190525110804 54 161 4.0 8.0 0.00 0.00 0.00 72 1001.9
20190525110603 53 157 2.0 8.0 0.00 0.00 0.00 73 1002.0
20190525110403 53 150 4.0 8.0 0.00 0.00 0.00 73 1002.2
20190525110203 53 152 4.0 8.0 0.00 0.00 0.00 72 1002.1
20190525110003 53 154 2.0 8.0 0.00 0.00 0.00 72 1001.9
20190525105803 53 166 6.0 8.0 0.00 0.00 0.00 72 1002.1
20190525105603 53 183 4.0 7.0 0.00 0.00 0.00 72 1002.1
20190525105403 53 189 2.0 7.0 0.00 0.00 0.00 71 1002.2
20190525105203 54 179 4.0 7.0 0.00 0.00 0.00 71 1002.2
20190525105003 54 172 2.0 8.0 0.00 0.00 0.00 71 1002.1
20190525104803 54 159 2.0 8.0 0.00 0.00 0.00 72 1001.9
20190525104603 54 156 3.0 8.0 0.00 0.00 0.00 72 1002.3
20190525104403 54 153 3.0 8.0 0.00 0.00 0.00 72 1002.3
20190525104203 54 159 4.0 8.0 0.00 0.00 0.00 72 1002.1
20190525104003 54 171 4.0 8.0 0.00 0.00 0.00 73 1002.0
20190525103803 54 189 4.0 8.0 0.00 0.00 0.00 73 1002.2
20190525103604 54 195 2.0 8.0 0.00 0.00 0.00 74 1002.1
20190525103404 54 190 2.0 8.0 0.00 0.00 0.00 74 1002.0
20190525103204 54 188 4.0 7.0 0.00 0.00 0.00 74 1002.2
20190525103004 54 176 2.0 7.0 0.00 0.00 0.00 74 1002.0
20190525102804 53 179 2.0 7.0 0.00 0.00 0.00 74 1002.2
20190525102604 53 176 3.0 7.0 0.00 0.00 0.00 74 1002.1
20190525102404 53 174 2.0 7.0 0.00 0.00 0.00 74 1002.2
20190525102204 53 180 4.0 6.0 0.00 0.00 0.00 74 1002.3
20190525102004 53 176 2.0 5.0 0.00 0.00 0.00 73 1002.0
20190525101804 53 154 3.0 5.0 0.00 0.00 0.00 73 1002.4
20190525101604 54 138 3.0 4.0 0.00 0.00 0.00 72 1002.1
20190525101404 54 124 2.0 5.0 0.00 0.00 0.00 72 1002.2
20190525101204 54 133 2.0 8.0 0.00 0.00 0.00 72 1002.4
20190525101004 54 153 3.0 8.0 0.00 0.00 0.00 71 1002.3
20190525100804 54 164 2.0 8.0 0.00 0.00 0.00 72 1002.5
20190525100604 54 163 3.0 8.0 0.00 0.00 0.00 72 1002.3
20190525100404 54 171 3.0 8.0 0.00 0.00 0.00 73 1002.3
20190525100204 54 172 5.0 8.0 0.00 0.00 0.00 73 1002.2
20190525100004 54 166 5.0 8.0 0.00 0.00 0.00 73 1002.2
20190525095803 54 155 3.0 7.0 0.00 0.00 0.00 73 1002.3
20190525095603 54 160 4.0 7.0 0.00 0.00 0.00 72 1002.4
20190525095404 54 161 4.0 7.0 0.00 0.00 0.00 72 1002.4
20190525095204 54 152 4.0 8.0 0.00 0.00 0.00 72 1002.5
20190525095004 54 147 3.0 8.0 0.00 0.00 0.00 72 1002.5
20190525094803 54 148 2.0 8.0 0.00 0.00 0.00 72 1002.5
20190525094604 54 142 4.0 8.0 0.00 0.00 0.00 72 1002.5
20190525094404 54 141 4.0 8.0 0.00 0.00 0.00 71 1002.6
20190525094204 54 146 2.0 7.0 0.00 0.00 0.00 71 1002.4
20190525094003 54 151 4.0 7.0 0.00 0.00 0.00 70 1002.3
20190525093803 54 157 4.0 7.0 0.00 0.00 0.00 71 1002.6
20190525093603 54 180 4.0 6.0 0.00 0.00 0.00 71 1002.6
20190525093403 54 182 2.0 5.0 0.00 0.00 0.00 71 1002.5
20190525093203 54 200 3.0 5.0 0.00 0.00 0.00 70 1002.5
20190525093003 54 200 3.0 5.0 0.00 0.00 0.00 71 1002.4
20190525092803 54 198 4.0 5.0 0.00 0.00 0.00 71 1002.5
20190525092603 54 198 2.0 8.0 0.00 0.00 0.00 71 1002.3
20190525092403 53 197 2.0 8.0 0.00 0.00 0.00 71 1002.4
20190525092203 53 199 2.0 8.0 0.00 0.00 0.00 71 1002.5
20190525092003 53 207 2.0 8.0 0.00 0.00 0.00 70 1002.6
20190525091803 53 198 2.0 8.0 0.00 0.00 0.00 70 1002.3
20190525091603 54 189 2.0 7.0 0.00 0.00 0.00 70 1002.2
20190525091403 54 178 2.0 7.0 0.00 0.00 0.00 70 1002.4
20190525091203 54 161 2.0 7.0 0.00 0.00 0.00 70 1002.4
20190525091003 54 156 2.0 7.0 0.00 0.00 0.00 70 1002.5
20190525090803 54 136 1.0 4.0 0.00 0.00 0.00 67 1002.3
20190525090603 54 124 2.0 4.0 0.00 0.00 0.00 66 1002.4
20190525090403 55 149 2.0 4.0 0.00 0.00 0.00 66 1002.3
20190525090203 55 150 2.0 4.0 0.00 0.00 0.00 65 1002.4
20190525090003 55 130 2.0 4.0 0.00 0.00 0.00 66 1002.6
20190525085803 55 145 2.0 4.0 0.00 0.00 0.00 65 1002.4
20190525085604 55 158 2.0 4.0 0.00 0.00 0.00 65 1002.2
20190525085403 55 136 4.0 4.0 0.00 0.00 0.00 66 1002.4
20190525085204 55 127 2.0 4.0 0.00 0.00 0.00 66 1002.4
20190525085003 55 148 2.0 5.0 0.00 0.00 0.00 66 1002.3
20190525084803 55 155 2.0 5.0 0.00 0.00 0.00 65 1002.4
20190525084603 55 161 2.0 5.0 0.00 0.00 0.00 66 1002.4
20190525084403 55 173 3.0 5.0 0.00 0.00 0.00 65 1002.4
20190525084203 55 172 2.0 5.0 0.00 0.00 0.00 65 1002.3
20190525084004 55 163 2.0 4.0 0.00 0.00 0.00 67 1002.4
20190525083803 55 155 2.0 5.0 0.00 0.00 0.00 67 1002.5
20190525083603 54 162 2.0 6.0 0.00 0.00 0.00 66 1002.3
20190525083403 54 164 2.0 6.0 0.00 0.00 0.00 66 1002.4
20190525083203 54 167 2.0 6.0 0.00 0.00 0.00 66 1002.4